UPS214 KSDF-KMSP

Flight info

Callsign UPS214
Flight time 1h 32m
Altitude 36000
Route RDHSE1 JIBKA BDF ODI CMAAC KKILR4
Aircraft B748/H-VGDW/C

Departure

Time 2026-05-05 18:14
Airport Louisville Muhammad Ali International Airport (KSDF)

Arrival

Time 2026-05-05 19:46
Airport Minneapolis–Saint Paul International Airport / Wold–Chamberlain Field (KMSP)
Time Latitude Longitude Altitude Speed Heading
2026-05-05 17:50 38.16362 -85.73773 495 ft 0 kts 269°
2026-05-05 17:56 38.16362 -85.73762 485 ft 3 kts 269°
2026-05-05 17:56 38.16362 -85.73739 484 ft 3 kts 269°
2026-05-05 17:56 38.16362 -85.73726 484 ft 0 kts 269°
2026-05-05 18:04 38.16362 -85.73728 504 ft 1 kts 272°
2026-05-05 18:04 38.16364 -85.73737 495 ft 1 kts 284°
2026-05-05 18:04 38.16367 -85.73741 495 ft 0 kts 298°
2026-05-05 18:04 38.16369 -85.73744 495 ft 0 kts 309°
2026-05-05 18:05 38.16372 -85.73745 495 ft 0 kts 319°
2026-05-05 18:05 38.16375 -85.73746 495 ft 0 kts 328°
2026-05-05 18:05 38.16378 -85.73747 484 ft 1 kts 338°
2026-05-05 18:05 38.16399 -85.73758 487 ft 6 kts 338°
2026-05-05 18:06 38.16453 -85.73787 486 ft 11 kts 334°
2026-05-05 18:06 38.16497 -85.73830 488 ft 12 kts 315°
2026-05-05 18:06 38.16563 -85.73957 484 ft 12 kts 306°
2026-05-05 18:06 38.16626 -85.74023 485 ft 12 kts 334°
2026-05-05 18:07 38.16709 -85.74057 491 ft 13 kts 344°
2026-05-05 18:07 38.16804 -85.74087 488 ft 15 kts 346°
2026-05-05 18:07 38.16909 -85.74121 484 ft 16 kts 345°
2026-05-05 18:07 38.17023 -85.74161 488 ft 18 kts 345°
2026-05-05 18:08 38.17145 -85.74202 489 ft 19 kts 345°
2026-05-05 18:08 38.17272 -85.74244 486 ft 19 kts 346°
2026-05-05 18:08 38.17403 -85.74288 487 ft 20 kts 346°
2026-05-05 18:08 38.17538 -85.74332 490 ft 20 kts 345°
2026-05-05 18:09 38.17675 -85.74377 487 ft 21 kts 345°
2026-05-05 18:09 38.17819 -85.74425 491 ft 22 kts 347°
2026-05-05 18:09 38.17968 -85.74473 491 ft 23 kts 345°
2026-05-05 18:09 38.18125 -85.74525 490 ft 24 kts 346°
2026-05-05 18:10 38.18281 -85.74575 487 ft 22 kts 346°
2026-05-05 18:10 38.18400 -85.74615 490 ft 13 kts 345°
2026-05-05 18:10 38.18471 -85.74655 485 ft 9 kts 316°
2026-05-05 18:10 38.18484 -85.74702 485 ft 4 kts 268°
2026-05-05 18:11 38.18478 -85.74736 487 ft 5 kts 257°
2026-05-05 18:11 38.18467 -85.74775 494 ft 4 kts 243°
2026-05-05 18:11 38.18456 -85.74788 489 ft 1 kts 219°
2026-05-05 18:11 38.18450 -85.74792 486 ft 0 kts 208°
2026-05-05 18:12 38.18447 -85.74792 488 ft 1 kts 197°
2026-05-05 18:12 38.18443 -85.74792 488 ft 1 kts 182°
2026-05-05 18:12 38.18438 -85.74789 489 ft 1 kts 167°
2026-05-05 18:13 38.18426 -85.74785 489 ft 19 kts 165°
2026-05-05 18:13 38.17974 -85.74634 486 ft 114 kts 167°
2026-05-05 18:13 38.16933 -85.74293 484 ft 192 kts 167°
2026-05-05 18:14 38.15550 -85.73799 1048 ft 208 kts 167°
2026-05-05 18:14 38.14161 -85.73326 1641 ft 208 kts 171°
2026-05-05 18:14 38.12732 -85.73224 2251 ft 208 kts 184°
2026-05-05 18:14 38.11241 -85.73269 2664 ft 219 kts 183°
2026-05-05 18:15 38.09713 -85.73291 3241 ft 222 kts 183°
2026-05-05 18:15 38.08201 -85.73560 3949 ft 219 kts 204°
2026-05-05 18:15 38.06907 -85.74567 4678 ft 221 kts 224°
2026-05-05 18:15 38.06023 -85.76161 5274 ft 232 kts 245°
2026-05-05 18:16 38.05736 -85.78292 5895 ft 252 kts 265°
2026-05-05 18:16 38.05737 -85.80523 6718 ft 259 kts 265°
2026-05-05 18:16 38.05781 -85.82826 7619 ft 264 kts 274°
2026-05-05 18:16 38.06259 -85.85096 8504 ft 268 kts 280°
2026-05-05 18:17 38.06783 -85.87367 9363 ft 271 kts 283°
2026-05-05 18:17 38.07721 -85.89497 10181 ft 285 kts 303°
2026-05-05 18:17 38.09313 -85.91169 10669 ft 314 kts 327°
2026-05-05 18:17 38.11423 -85.92263 11038 ft 340 kts 334°
2026-05-05 18:18 38.13736 -85.93251 11394 ft 361 kts 336°
2026-05-05 18:18 38.16154 -85.94273 12103 ft 369 kts 335°
2026-05-05 18:18 38.18587 -85.95374 12939 ft 374 kts 334°
2026-05-05 18:18 38.21055 -85.96511 13729 ft 380 kts 334°
2026-05-05 18:19 38.23562 -85.97639 14494 ft 383 kts 334°
2026-05-05 18:19 38.26084 -85.98759 15325 ft 385 kts 334°
2026-05-05 18:19 38.28616 -85.99897 16181 ft 386 kts 334°
2026-05-05 18:19 38.31154 -86.01048 17039 ft 388 kts 334°
2026-05-05 18:20 38.33701 -86.02199 17913 ft 389 kts 334°
2026-05-05 18:20 38.36260 -86.03351 18704 ft 391 kts 334°
2026-05-05 18:20 38.38799 -86.04496 19426 ft 393 kts 334°
2026-05-05 18:20 38.41418 -86.05682 20172 ft 395 kts 334°
2026-05-05 18:21 38.43981 -86.06842 20894 ft 397 kts 334°
2026-05-05 18:21 38.46597 -86.08026 21595 ft 400 kts 333°
2026-05-05 18:21 38.49228 -86.09218 22251 ft 403 kts 333°
2026-05-05 18:21 38.51884 -86.10423 22905 ft 406 kts 333°
2026-05-05 18:22 38.54533 -86.11683 23533 ft 405 kts 328°
2026-05-05 18:22 38.56972 -86.13424 24070 ft 399 kts 319°
2026-05-05 18:22 38.59116 -86.15644 24618 ft 395 kts 311°
2026-05-05 18:22 38.61133 -86.18035 25130 ft 397 kts 311°
2026-05-05 18:23 38.63165 -86.20444 25659 ft 398 kts 311°
2026-05-05 18:23 38.65197 -86.22861 26202 ft 400 kts 311°
2026-05-05 18:23 38.67238 -86.25292 26738 ft 401 kts 311°
2026-05-05 18:23 38.69286 -86.27731 27275 ft 403 kts 311°
2026-05-05 18:24 38.71342 -86.30179 27809 ft 404 kts 311°
2026-05-05 18:24 38.73403 -86.32637 28347 ft 406 kts 311°
2026-05-05 18:24 38.75473 -86.35110 28883 ft 408 kts 311°
2026-05-05 18:24 38.77527 -86.37564 29413 ft 409 kts 311°
2026-05-05 18:25 38.79615 -86.40060 29962 ft 411 kts 311°
2026-05-05 18:25 38.81029 -86.41752 30249 ft 412 kts 311°
2026-05-05 18:25 38.83815 -86.45088 30839 ft 414 kts 311°
2026-05-05 18:25 38.85905 -86.47629 31289 ft 415 kts 310°
2026-05-05 18:26 38.87985 -86.50201 31737 ft 416 kts 310°
2026-05-05 18:26 38.90075 -86.52772 32193 ft 417 kts 310°
2026-05-05 18:26 38.92178 -86.55338 32627 ft 418 kts 310°
2026-05-05 18:26 38.94281 -86.57910 33056 ft 418 kts 310°
2026-05-05 18:27 38.96386 -86.60499 33501 ft 419 kts 310°
2026-05-05 18:27 38.98493 -86.63093 33917 ft 420 kts 310°
2026-05-05 18:27 39.00609 -86.65695 34257 ft 421 kts 310°
2026-05-05 18:27 39.02725 -86.68295 34717 ft 419 kts 310°
2026-05-05 18:28 39.06901 -86.73442 35714 ft 412 kts 310°
2026-05-05 18:28 39.08960 -86.75985 35853 ft 409 kts 310°
2026-05-05 18:28 39.11013 -86.78521 35846 ft 406 kts 310°
2026-05-05 18:29 39.15074 -86.83543 35845 ft 404 kts 310°
2026-05-05 18:29 39.19118 -86.88554 35845 ft 403 kts 310°
2026-05-05 18:30 39.23147 -86.93555 35844 ft 404 kts 310°
2026-05-05 18:30 39.27192 -86.98582 35846 ft 404 kts 309°
2026-05-05 18:31 39.31234 -87.03615 35863 ft 403 kts 309°
2026-05-05 18:31 39.35273 -87.08654 35875 ft 404 kts 309°
2026-05-05 18:32 39.39313 -87.13702 35885 ft 404 kts 309°
2026-05-05 18:32 39.43349 -87.18752 35890 ft 403 kts 309°
2026-05-05 18:33 39.47382 -87.23808 35885 ft 403 kts 309°
2026-05-05 18:33 39.51362 -87.28903 35893 ft 400 kts 307°
2026-05-05 18:34 39.55202 -87.34073 35889 ft 400 kts 308°
2026-05-05 18:34 39.59066 -87.39280 35884 ft 401 kts 307°
2026-05-05 18:35 39.62928 -87.44497 35898 ft 401 kts 307°
2026-05-05 18:35 39.66792 -87.49721 35904 ft 400 kts 307°
2026-05-05 18:36 39.70648 -87.54949 35901 ft 401 kts 307°
2026-05-05 18:36 39.74506 -87.60185 35896 ft 401 kts 307°
2026-05-05 18:37 39.78333 -87.65388 35906 ft 400 kts 307°
2026-05-05 18:37 39.82175 -87.70621 35908 ft 400 kts 307°
2026-05-05 18:38 39.86012 -87.75857 35901 ft 399 kts 307°
2026-05-05 18:38 39.89839 -87.81088 35897 ft 399 kts 307°
2026-05-05 18:39 39.93664 -87.86324 35893 ft 398 kts 307°
2026-05-05 18:39 39.97471 -87.91546 35896 ft 396 kts 307°
2026-05-05 18:40 40.01263 -87.96757 35903 ft 396 kts 307°
2026-05-05 18:40 40.04889 -88.02141 35848 ft 394 kts 307°
2026-05-05 18:41 40.08879 -88.07154 35893 ft 398 kts 308°
2026-05-05 18:41 40.12582 -88.12385 35894 ft 394 kts 306°
2026-05-05 18:42 40.16368 -88.17596 35908 ft 395 kts 307°
2026-05-05 18:42 40.20128 -88.22806 35914 ft 393 kts 306°
2026-05-05 18:43 40.23881 -88.28023 35922 ft 394 kts 306°
2026-05-05 18:43 40.27638 -88.33241 35919 ft 394 kts 306°
2026-05-05 18:44 40.31388 -88.38469 35917 ft 392 kts 306°
2026-05-05 18:44 40.35126 -88.43683 35916 ft 392 kts 306°
2026-05-05 18:45 40.38861 -88.48906 35913 ft 392 kts 306°
2026-05-05 18:45 40.42596 -88.54135 35919 ft 393 kts 306°
2026-05-05 18:46 40.46330 -88.59373 35925 ft 392 kts 306°
2026-05-05 18:46 40.50049 -88.64599 35929 ft 391 kts 306°
2026-05-05 18:47 40.53122 -88.68925 35933 ft 391 kts 305°
2026-05-05 18:47 40.56831 -88.74154 35935 ft 391 kts 305°
2026-05-05 18:48 40.60539 -88.79390 35940 ft 391 kts 305°
2026-05-05 18:48 40.64242 -88.84628 35936 ft 390 kts 305°
2026-05-05 18:49 40.67937 -88.89864 35936 ft 390 kts 305°
2026-05-05 18:49 40.71632 -88.95110 35933 ft 391 kts 305°
2026-05-05 18:50 40.75338 -89.00380 35928 ft 392 kts 305°
2026-05-05 18:50 40.79021 -89.05626 35925 ft 392 kts 305°
2026-05-05 18:51 40.82723 -89.10911 35919 ft 392 kts 304°
2026-05-05 18:51 40.86421 -89.16196 35926 ft 392 kts 304°
2026-05-05 18:52 40.90112 -89.21481 35919 ft 391 kts 304°
2026-05-05 18:52 40.93799 -89.26773 35910 ft 391 kts 304°
2026-05-05 18:53 40.97481 -89.32064 35915 ft 391 kts 304°
2026-05-05 18:53 41.01163 -89.37365 35919 ft 391 kts 304°
2026-05-05 18:54 41.04850 -89.42684 35923 ft 393 kts 304°
2026-05-05 18:54 41.08526 -89.47995 35925 ft 393 kts 304°
2026-05-05 18:55 41.12214 -89.53333 35920 ft 392 kts 304°
2026-05-05 18:55 41.16264 -89.58304 35930 ft 404 kts 313°
2026-05-05 18:56 41.21201 -89.62184 35923 ft 421 kts 322°
2026-05-05 18:56 41.26453 -89.65611 35924 ft 420 kts 322°
2026-05-05 18:57 41.31710 -89.69045 35920 ft 422 kts 322°
2026-05-05 18:57 41.36979 -89.72489 35920 ft 421 kts 322°
2026-05-05 18:58 41.42244 -89.75943 35920 ft 422 kts 322°
2026-05-05 18:58 41.47515 -89.79402 35927 ft 423 kts 322°
2026-05-05 18:59 41.52790 -89.82871 35929 ft 423 kts 321°
2026-05-05 18:59 41.58067 -89.86349 35934 ft 423 kts 321°
2026-05-05 19:00 41.63318 -89.89816 35935 ft 424 kts 321°
2026-05-05 19:00 41.68605 -89.93312 35931 ft 424 kts 321°
2026-05-05 19:01 41.73899 -89.96822 35926 ft 426 kts 321°
2026-05-05 19:01 41.79217 -90.00350 35931 ft 426 kts 321°
2026-05-05 19:02 41.84533 -90.03887 35939 ft 427 kts 321°
2026-05-05 19:02 41.89850 -90.07429 35945 ft 427 kts 321°
2026-05-05 19:03 41.95172 -90.10983 35944 ft 427 kts 321°
2026-05-05 19:03 42.00486 -90.14537 35946 ft 427 kts 321°
2026-05-05 19:04 42.05800 -90.18096 35939 ft 427 kts 321°
2026-05-05 19:04 42.11112 -90.21664 35943 ft 427 kts 321°
2026-05-05 19:05 42.16436 -90.25246 35939 ft 428 kts 321°
2026-05-05 19:05 42.21770 -90.28839 35938 ft 429 kts 321°
2026-05-05 19:06 42.27113 -90.32446 35935 ft 429 kts 321°
2026-05-05 19:06 42.32445 -90.36052 35925 ft 428 kts 321°
2026-05-05 19:07 42.37760 -90.39657 35931 ft 428 kts 321°
2026-05-05 19:07 42.43094 -90.43278 35932 ft 429 kts 321°
2026-05-05 19:08 42.48421 -90.46901 35927 ft 428 kts 321°
2026-05-05 19:08 42.53751 -90.50535 35927 ft 429 kts 321°
2026-05-05 19:09 42.59083 -90.54176 35933 ft 429 kts 321°
2026-05-05 19:09 42.64393 -90.57811 35936 ft 430 kts 321°
2026-05-05 19:10 42.69737 -90.61473 35931 ft 430 kts 321°
2026-05-05 19:10 42.75088 -90.65150 35929 ft 431 kts 321°
2026-05-05 19:11 42.80444 -90.68836 35932 ft 432 kts 321°
2026-05-05 19:11 42.85814 -90.72540 35924 ft 432 kts 321°
2026-05-05 19:12 42.91190 -90.76254 35927 ft 433 kts 321°
2026-05-05 19:12 42.96577 -90.79984 35923 ft 435 kts 321°
2026-05-05 19:13 43.01981 -90.83732 35932 ft 435 kts 321°
2026-05-05 19:13 43.07377 -90.87483 35927 ft 436 kts 321°
2026-05-05 19:14 43.12784 -90.91249 35932 ft 436 kts 321°
2026-05-05 19:14 43.18170 -90.95008 35928 ft 438 kts 321°
2026-05-05 19:15 43.23603 -90.98807 35928 ft 438 kts 321°
2026-05-05 19:15 43.29041 -91.02616 35922 ft 439 kts 321°
2026-05-05 19:16 43.34480 -91.06436 35923 ft 439 kts 321°
2026-05-05 19:16 43.39922 -91.10263 35920 ft 440 kts 321°
2026-05-05 19:17 43.45371 -91.14106 35921 ft 440 kts 321°
2026-05-05 19:17 43.50835 -91.17965 35919 ft 441 kts 322°
2026-05-05 19:18 43.56294 -91.21828 35908 ft 441 kts 322°
2026-05-05 19:18 43.61719 -91.25677 35916 ft 441 kts 322°
2026-05-05 19:19 43.67176 -91.29555 35924 ft 441 kts 322°
2026-05-05 19:19 43.72640 -91.33446 35925 ft 441 kts 322°
2026-05-05 19:20 43.75356 -91.35379 35736 ft 437 kts 322°
2026-05-05 19:20 43.78049 -91.37301 35187 ft 434 kts 321°
2026-05-05 19:20 43.80702 -91.39195 34688 ft 424 kts 321°
2026-05-05 19:20 43.83301 -91.41051 34210 ft 416 kts 321°
2026-05-05 19:21 43.85841 -91.42870 33696 ft 406 kts 320°
2026-05-05 19:21 43.88320 -91.44648 33232 ft 396 kts 320°
2026-05-05 19:21 43.90754 -91.46355 32788 ft 391 kts 323°
2026-05-05 19:21 43.93325 -91.47723 32343 ft 399 kts 327°
2026-05-05 19:22 43.95972 -91.48963 31886 ft 405 kts 327°
2026-05-05 19:22 43.98652 -91.50231 31422 ft 408 kts 327°
2026-05-05 19:22 44.01315 -91.51473 30963 ft 408 kts 327°
2026-05-05 19:22 44.04032 -91.52735 30483 ft 406 kts 327°
2026-05-05 19:23 44.06675 -91.53977 30024 ft 404 kts 327°
2026-05-05 19:23 44.09331 -91.55232 29523 ft 402 kts 327°
2026-05-05 19:23 44.11970 -91.56473 29056 ft 399 kts 327°
2026-05-05 19:23 44.14591 -91.57703 28587 ft 396 kts 327°
2026-05-05 19:24 44.17193 -91.58929 28132 ft 393 kts 327°
2026-05-05 19:24 44.19779 -91.60151 27679 ft 391 kts 327°
2026-05-05 19:24 44.22347 -91.61365 27234 ft 388 kts 327°
2026-05-05 19:24 44.24892 -91.62567 26777 ft 386 kts 327°
2026-05-05 19:25 44.27430 -91.63767 26336 ft 384 kts 327°
2026-05-05 19:25 44.29950 -91.64961 25898 ft 382 kts 327°
2026-05-05 19:25 44.32461 -91.66152 25454 ft 380 kts 327°
2026-05-05 19:25 44.34964 -91.67339 25008 ft 379 kts 327°
2026-05-05 19:26 44.37451 -91.68519 24572 ft 377 kts 328°
2026-05-05 19:26 44.39932 -91.69698 24140 ft 375 kts 328°
2026-05-05 19:26 44.42361 -91.70853 23700 ft 371 kts 328°
2026-05-05 19:26 44.44791 -91.72006 23244 ft 365 kts 328°
2026-05-05 19:27 44.47207 -91.73154 22812 ft 360 kts 328°
2026-05-05 19:27 44.49562 -91.74284 22403 ft 357 kts 328°
2026-05-05 19:27 44.51908 -91.75407 21973 ft 355 kts 328°
2026-05-05 19:27 44.54205 -91.76502 21571 ft 352 kts 329°
2026-05-05 19:28 44.56517 -91.77607 21150 ft 351 kts 329°
2026-05-05 19:28 44.58829 -91.78714 20740 ft 349 kts 330°
2026-05-05 19:28 44.61124 -91.79814 20342 ft 348 kts 330°
2026-05-05 19:28 44.63414 -91.80912 19930 ft 347 kts 331°
2026-05-05 19:29 44.65697 -91.82007 19517 ft 346 kts 332°
2026-05-05 19:29 44.67976 -91.83102 19106 ft 346 kts 332°
2026-05-05 19:29 44.70253 -91.84196 18690 ft 346 kts 333°
2026-05-05 19:29 44.72523 -91.85291 18333 ft 343 kts 332°
2026-05-05 19:30 44.74625 -91.86750 17918 ft 333 kts 320°
2026-05-05 19:30 44.76384 -91.88800 17512 ft 325 kts 308°
2026-05-05 19:30 44.77738 -91.91296 17125 ft 318 kts 297°
2026-05-05 19:30 44.78663 -91.94103 16745 ft 314 kts 289°
2026-05-05 19:31 44.79447 -91.96970 16357 ft 313 kts 289°
2026-05-05 19:31 44.80224 -91.99820 15980 ft 312 kts 289°
2026-05-05 19:31 44.80997 -92.02676 15582 ft 311 kts 289°
2026-05-05 19:31 44.81767 -92.05525 15194 ft 311 kts 289°
2026-05-05 19:32 44.82536 -92.08368 14808 ft 310 kts 290°
2026-05-05 19:32 44.83302 -92.11202 14424 ft 310 kts 290°
2026-05-05 19:32 44.84066 -92.14036 14040 ft 309 kts 290°
2026-05-05 19:32 44.84830 -92.16871 13641 ft 309 kts 290°
2026-05-05 19:33 44.85363 -92.19790 13212 ft 308 kts 276°
2026-05-05 19:33 44.85496 -92.21790 12912 ft 309 kts 276°
2026-05-05 19:33 44.85729 -92.25779 12371 ft 308 kts 275°
2026-05-05 19:33 44.85906 -92.28782 11963 ft 307 kts 276°
2026-05-05 19:34 44.86090 -92.31771 11542 ft 303 kts 276°
2026-05-05 19:34 44.86256 -92.34668 11152 ft 291 kts 275°
2026-05-05 19:34 44.86383 -92.37463 10771 ft 280 kts 275°
2026-05-05 19:35 44.86590 -92.41891 10175 ft 265 kts 275°
2026-05-05 19:35 44.86718 -92.44448 9827 ft 258 kts 275°
2026-05-05 19:35 44.86838 -92.46936 9477 ft 251 kts 274°
2026-05-05 19:35 44.86614 -92.49335 9160 ft 246 kts 254°
2026-05-05 19:36 44.85897 -92.51501 8834 ft 242 kts 246°
2026-05-05 19:36 44.85131 -92.53585 8513 ft 237 kts 246°
2026-05-05 19:36 44.84380 -92.55630 8204 ft 232 kts 247°
2026-05-05 19:36 44.83648 -92.57635 7899 ft 228 kts 247°
2026-05-05 19:37 44.82925 -92.59610 7611 ft 225 kts 247°
2026-05-05 19:37 44.82214 -92.61555 7302 ft 221 kts 247°
2026-05-05 19:37 44.81506 -92.63490 7035 ft 224 kts 247°
2026-05-05 19:37 44.80798 -92.65417 6996 ft 219 kts 247°
2026-05-05 19:38 44.80112 -92.67285 6984 ft 212 kts 247°
2026-05-05 19:38 44.79429 -92.69150 6992 ft 214 kts 247°
2026-05-05 19:38 44.78746 -92.71007 6998 ft 214 kts 246°
2026-05-05 19:38 44.78062 -92.72867 7001 ft 214 kts 246°
2026-05-05 19:39 44.77378 -92.74725 6991 ft 214 kts 248°
2026-05-05 19:39 44.77021 -92.76735 7036 ft 222 kts 269°
2026-05-05 19:39 44.76904 -92.78952 7017 ft 231 kts 267°
2026-05-05 19:39 44.76774 -92.81275 6788 ft 243 kts 267°
2026-05-05 19:40 44.76646 -92.83666 6450 ft 244 kts 268°
2026-05-05 19:40 44.76518 -92.86006 6101 ft 235 kts 268°
2026-05-05 19:40 44.76396 -92.88265 5759 ft 227 kts 267°
2026-05-05 19:40 44.76277 -92.90442 5455 ft 219 kts 267°
2026-05-05 19:41 44.76212 -92.92517 5170 ft 206 kts 279°
2026-05-05 19:41 44.76529 -92.94429 4898 ft 197 kts 287°
2026-05-05 19:41 44.77037 -92.96184 4639 ft 191 kts 298°
2026-05-05 19:41 44.77685 -92.97780 4395 ft 186 kts 300°
2026-05-05 19:42 44.78349 -92.99313 4142 ft 180 kts 300°
2026-05-05 19:42 44.78989 -93.00791 3925 ft 175 kts 300°
2026-05-05 19:42 44.79612 -93.02225 3679 ft 169 kts 300°
2026-05-05 19:42 44.80233 -93.03662 3447 ft 171 kts 300°
2026-05-05 19:43 44.80852 -93.05089 3230 ft 171 kts 300°
2026-05-05 19:43 44.81467 -93.06509 2997 ft 170 kts 300°
2026-05-05 19:43 44.82052 -93.07859 2894 ft 164 kts 299°
2026-05-05 19:43 44.82626 -93.09181 2713 ft 156 kts 300°
2026-05-05 19:44 44.83188 -93.10484 2569 ft 156 kts 300°
2026-05-05 19:44 44.83747 -93.11771 2326 ft 154 kts 300°
2026-05-05 19:44 44.84303 -93.13057 2119 ft 153 kts 300°
2026-05-05 19:44 44.84859 -93.14340 1894 ft 154 kts 300°
2026-05-05 19:45 44.85408 -93.15612 1658 ft 156 kts 300°
2026-05-05 19:45 44.85982 -93.16945 1396 ft 159 kts 298°
2026-05-05 19:45 44.86549 -93.18268 1173 ft 155 kts 298°
2026-05-05 19:45 44.87106 -93.19557 962 ft 154 kts 299°
2026-05-05 19:46 44.87668 -93.20837 837 ft 154 kts 299°
2026-05-05 19:46 44.88161 -93.21984 829 ft 103 kts 301°
2026-05-05 19:46 44.88360 -93.22444 823 ft 15 kts 301°
2026-05-05 19:46 44.88410 -93.22562 821 ft 13 kts 301°
2026-05-05 19:47 44.88460 -93.22683 823 ft 15 kts 300°
2026-05-05 19:47 44.88486 -93.22775 827 ft 2 kts 267°
2026-05-05 19:47 44.88481 -93.22800 826 ft 3 kts 249°
2026-05-05 19:47 44.88458 -93.22834 823 ft 5 kts 213°
2026-05-05 19:48 44.88433 -93.22846 823 ft 2 kts 190°
2026-05-05 19:48 44.88411 -93.22842 824 ft 3 kts 158°
2026-05-05 19:48 44.88391 -93.22811 825 ft 5 kts 120°
2026-05-05 19:48 44.88362 -93.22745 822 ft 11 kts 121°
2026-05-05 19:49 44.88309 -93.22631 827 ft 15 kts 129°
2026-05-05 19:49 44.88269 -93.22610 824 ft 4 kts 186°
2026-05-05 19:49 44.88241 -93.22632 825 ft 6 kts 217°
2026-05-05 19:49 44.88202 -93.22683 827 ft 10 kts 224°
2026-05-05 19:50 44.88140 -93.22768 824 ft 15 kts 225°
2026-05-05 19:50 44.88059 -93.22885 829 ft 16 kts 225°
2026-05-05 19:50 44.88016 -93.22962 827 ft 5 kts 255°
2026-05-05 19:50 44.88022 -93.23013 823 ft 7 kts 289°
2026-05-05 19:51 44.88049 -93.23087 825 ft 11 kts 300°
2026-05-05 19:51 44.88095 -93.23197 828 ft 16 kts 300°
2026-05-05 19:51 44.88150 -93.23321 826 ft 11 kts 301°
2026-05-05 19:51 44.88164 -93.23366 822 ft 3 kts 279°
2026-05-05 19:52 44.88159 -93.23392 822 ft 3 kts 244°
2026-05-05 19:52 44.88135 -93.23420 826 ft 5 kts 214°
2026-05-05 19:52 44.88116 -93.23436 828 ft 2 kts 210°
2026-05-05 19:52 44.88114 -93.23438 827 ft 0 kts 210°